{"data":{"norad_id":56548,"epoch":"2026-05-25T00:37:47.979264Z","epoch_age_seconds":75865,"freshness":"FRESH","line1":"1 56548U 23065AX  26145.02624976  .00000265  00000+0  19145-4 0  9994","line2":"2 56548  43.0024 152.7461 0001523 269.1917  90.8760 15.27578553168143","mean_motion":15.27578553,"eccentricity":0.0001523,"inclination_deg":43.0024,"raan_deg":152.7461,"arg_perigee_deg":269.1917,"mean_anomaly_deg":90.876,"bstar":1.9145e-5,"rev_number":16814,"period_min":94.266838007904,"perigee_km":482.00846957931,"apogee_km":484.09838818395,"semimajor_km":6861.1904288816,"source":"CELESTRAK","updated_at":"2026-05-25T13:38:18.116150Z"}}